Weather History for OTBD - December, 2013

Change the Weather History Date:

Wednesday, December 11, 2013

  Actual Average Record
Temperature  
Mean Temperature 66 °F -  
Max Temperature 72 °F 74 °F 88 °F (2012)
Min Temperature 60 °F 58 °F 59 °F (2006)
Cooling Degree Days 1    
Growing Degree Days 16 (Base 50)    
Moisture  
Dew Point 53 °F    
Average Humidity 60    
Maximum Humidity 68    
Minimum Humidity 39    
Precipitation  
Precipitation 0.00 in 0.02 in - ()
Sea Level Pressure  
Sea Level Pressure 30.06 in    
Wind  
Wind Speed 9 mph ()    
Max Wind Speed 13 mph    
Max Gust Speed -    
Visibility 8.1 miles    
Events      
Averages and records for this station are not official NWS values.
T = Trace of Precipitation, MM = Missing Value Source: Averaged Metar Reports

Daily Weather History Graph

Daily Weather History Graph

Search for Another Location

Airport or City:

Trip Planner

Search our weather history database for the weather conditions in past years. The results will help you decide how hot, cold, wet, or windy it might be!

Date:

Astronomy

Dec. 11, 2013 Rise Set
Actual Time 6:09 AM AST 4:44 PM AST
Civil Twilight 5:44 AM AST 5:09 PM AST
Nautical Twilight 5:15 AM AST 5:38 PM AST
Astronomical Twilight 4:47 AM AST 6:06 PM AST
Moon 12:39 PM AST (12/11) 12:35 AM AST (12/11)
Length of Visible Light 11h 25m
Length of Day
10h 35m
Waxing Gibbous, 68% of the Moon is Illuminated
Dec 11
Waxing Gibbous
Dec 17
Full
Dec 25
Last Quarter
Jan 1
New
Jan 8
First Quarter

Hourly Weather History & Observations

Time (AST) Temp. Dew Point Humidity Pressure Visibility Wind Dir Wind Speed Gust Speed Precip Events Conditions
12:00 AM 64 °F 51 °F 53% 30.06 in 9 mi NW 11.5 mph - -  
12:00 AM 64.4 °F 51.8 °F 64% 30.04 in - NW 11.5 mph - N/A   Clear
12:30 AM 64.4 °F 51.8 °F 64% 30.04 in - NW 11.5 mph - N/A   Clear
1:00 AM 64.4 °F 51.8 °F 64% 30.04 in - NW 12.7 mph - N/A   Clear
1:30 AM 62.6 °F 51.8 °F 68% 30.04 in - NW 12.7 mph - N/A   Clear
2:00 AM 62.6 °F 51.8 °F 68% 30.04 in - NW 10.4 mph - N/A   Clear
2:30 AM 62.6 °F 50.0 °F 63% 30.04 in - NW 10.4 mph - N/A   Clear
3:00 AM 63 °F 50 °F 53% 30.06 in 9 mi NW 9.2 mph - -  
3:00 AM 62.6 °F 50.0 °F 63% 30.04 in - NW 9.2 mph - N/A   Clear
3:30 AM 62.6 °F 50.0 °F 63% 30.04 in - NW 11.5 mph - N/A   Clear
4:00 AM 60.8 °F 50.0 °F 68% 30.04 in - NW 10.4 mph - N/A   Clear
4:30 AM 60.8 °F 50.0 °F 68% 30.04 in - NW 8.1 mph - N/A   Clear
5:00 AM 60.8 °F 50.0 °F 68% 30.06 in - WNW 9.2 mph - N/A   Clear
5:30 AM 60.8 °F 50.0 °F 68% 30.06 in - NW 9.2 mph - N/A   Clear
6:00 AM 61 °F 49 °F 55% 30.09 in 7 mi NW 10.4 mph - -  
6:00 AM 60.8 °F 50.0 °F 68% 30.06 in - NW 10.4 mph - N/A   Clear
6:30 AM 60.8 °F 50.0 °F 68% 30.09 in - NW 10.4 mph - N/A   Clear
7:00 AM 60.8 °F 50.0 °F 68% 30.09 in - NW 9.2 mph - N/A   Clear
8:00 AM 62.6 °F 51.8 °F 68% 30.12 in - NW 8.1 mph - N/A   Clear
9:00 AM 66 °F 51 °F 49% 30.15 in 6 mi NW 8.1 mph - -  
9:00 AM 66.2 °F 51.8 °F 60% 30.12 in - NW 8.1 mph - N/A   Clear
10:00 AM 68.0 °F 51.8 °F 56% 30.12 in - NW 8.1 mph - N/A   Clear
11:00 AM 69.8 °F 53.6 °F 56% 30.09 in - North 10.4 mph - N/A   Clear
12:00 PM 71 °F 53 °F 41% 30.09 in 7 mi North 6.9 mph - -   Scattered Clouds
12:00 PM 69.8 °F 51.8 °F 53% 30.06 in - North 6.9 mph - N/A   Clear
12:30 PM 71.6 °F 51.8 °F 50% 30.06 in - North 8.1 mph - N/A   Clear
1:00 PM 71.6 °F 53.6 °F 53% 30.04 in - NNE 9.2 mph - N/A   Clear
2:00 PM 71.6 °F 51.8 °F 50% 30.04 in - North 9.2 mph - N/A   Clear
2:30 PM 71.6 °F 51.8 °F 50% 30.04 in - NNE 9.2 mph - N/A   Clear
3:00 PM 72 °F 52 °F 39% 30.04 in 9 mi NNE 9.2 mph - -  
3:00 PM 71.6 °F 51.8 °F 50% 30.04 in - NNE 9.2 mph - N/A   Clear
3:30 PM 71.6 °F 51.8 °F 50% 30.04 in - NNE 10.4 mph - N/A   Clear
4:00 PM 71.6 °F 53.6 °F 53% 30.04 in - NNE 10.4 mph - N/A   Clear
4:30 PM 69.8 °F 55.4 °F 60% 30.04 in - NNE 11.5 mph - N/A   Clear
5:00 PM 69.8 °F 57.2 °F 64% 30.04 in - NNE 10.4 mph - N/A   Clear
5:30 PM 69.8 °F 55.4 °F 60% 30.04 in - NNE 9.2 mph - N/A   Clear
6:00 PM 69 °F 56 °F 54% 30.05 in 9 mi NNE 9.2 mph - -  
6:00 PM 68.0 °F 55.4 °F 64% 30.04 in - NNE 9.2 mph - N/A   Clear
6:30 PM 68.0 °F 57.2 °F 68% 30.04 in - NNE 6.9 mph - N/A   Clear
7:00 PM 68.0 °F 57.2 °F 68% 30.04 in - NE 4.6 mph - N/A   Clear
7:30 PM 68.0 °F 55.4 °F 64% 30.04 in - NE 4.6 mph - N/A   Clear
8:00 PM 68.0 °F 55.4 °F 64% 30.04 in - NE 3.5 mph - N/A   Clear
8:30 PM 68.0 °F 57.2 °F 68% 30.04 in - East 3.5 mph - N/A   Clear
9:00 PM 68 °F 57 °F 60% 30.06 in 9 mi ENE 4.6 mph - -  
9:00 PM 68.0 °F 57.2 °F 68% 30.04 in - ENE 4.6 mph - N/A   Clear
9:30 PM 69.8 °F 57.2 °F 64% 30.04 in - East 6.9 mph - N/A   Clear
10:00 PM 69.8 °F 59.0 °F 68% 30.04 in - East 4.6 mph - N/A   Clear
11:00 PM 69.8 °F 59.0 °F 68% 30.01 in - ESE 6.9 mph - N/A   Clear